OBJECT BM (43817 NORAD) Tracking and Keplerian Element Data

This shows tracking and keplerian element data for the satellite.

Feedback or suggestion? Click here.




ElementValue
Catalog43817
NameOBJECT BM
Epoch Orbit627
Epoch Day17.78775602
Epoch Year2019
RAAN91.5118
Inclination97.7639
Eccentricity0.00147
Argument of Perigee105.1463
Mean Anonmoly255.1385
Mean Motion14.9531822
Decay Rate4.6E-06
L11 43817U 18099BM 19017.78775602 .00000460 00000-0 46967-4 0 9996
L22 43817 97.7639 91.5118 0014700 105.1463 255.1385 14.95318220 6272

Live tracking and technical data element details for OBJECT BM (NORAD 43817). OBJECT BM can be tracked NOW for your location showing map with azimuth and elevation plus other details from your city location.

Track the satellite on the map from your city or location and see movement details for azimuth, elevation, latitude, longitude, range, height, and movement on the map or in text.







IsCatalogInMostPopularTable: catalog: 43817, numindb: 21
Update: records affected: 1



GetName: 43817 OBJECT BM

Hit Count: updated at: Wed, 23 Jan 2019 03:42:27 GMT